ELECTRON KICK STAGE R/B, 62928

Orbit data source: Space-Track

ELECTRON KICK STAGE R/B, 62928 is space debris in SSO originally from a launch on Sat, 08 Feb 2025 UTC launched from the Rocket Lab Launch Complex (RLLC). Debris objects in space refer to the collection of defunct objects orbiting the Earth. Examples of debris include non-operational satellites, rocket bodies, and fragments generated from explosions, collisions, or faulty payload assembly.

Loading next visibility...
Identifier
62928, 2025-028A
Orbit
SSO
Country
Flag of USUS
Related business
Manufacturer
Rocket Lab
Mission
Spacecraft
Bus & Motor
KICK STAGE, CURIE
Mass
~50 kg wet, ~50 kg dry
Launch date (UTC)
2025-02-08 (9 months ago)
Launch vehicle
Unknown
Launch site
Rocket Lab Launch Complex (RLLC)
Object type
Payload
Rocket body
Debris
Shape & HBR
Trunc Cone, 0.9 m
Radar Cross Section
0.760 m², Medium (>0.1 m² and < 1m²)

Expand to show TLE details & history
Last TLE update: 8 hours ago

TLE from 8 hours ago
0 ELECTRON KICK STAGE R/B
1 62928U 25028A   25297.70653652  .00004289  00000-0  46982-3 0  9998
2 62928  97.9235 353.4301 0039467 263.5007  96.1715 14.87741870 38316
Epoch: 2025-10-24T16:57Z
TLE epoch observation values (Epoch: 2025-10-24T16:57:24.755Z)
Latitude
Longitude
65.72937°
Altitude
611.095 km
Speed
7.552 km/s
True Right ascension
23h 33m 43s
True Declination
0° 00' 00"
Sunlit
Object was in full shadow at epoch
Visualization orbit readout
Latitude
Unknown
Longitude
Unknown
Altitude
Unknown
Speed
Unknown
Apparent Right ascension
Unknown
Apparent Declination
Unknown
Sunlit
N/A
Visualization observer readout
Local Sidereal Time
20:31:04
Azimuth
Unknown
Elevation
Unknown
Doppler factor
Unknown
Orbital elements
Apogee altitude
629.573 km
Perigee altitude
574.476 km
Semi-major axis
6,980.161 km
Eccentricity
0.00395
Inclination
97.9235°
RAAN
353.4301°
Arg. of periapsis
263.5007°
True anomaly
96.62089°
Mean anomaly
96.1715°
Eccentric anomaly
96.39622°
Mean motion
3.72173 °/min
Orbital period
96.73 mins
BSTAR
0.00046982
Loading maneuver chart data...
Computing Atmospheric mass density...
Loading historical data...
Loading historical data...
Loading historical data...
Loading historical data...
Loading historical data...
Loading historical data...
Loading historical data...

Documentation

Showing up to 5 results
|